Location: Caltech
(34.1382°N, 118.1253°W)
Time: 15:32:45
(UTC-07:00)

UOSAT-12 - Visible Passes

Search period start: 30 August 2015 00:00
Search period end: 09 September 2015 00:00
Orbit: 602 x 653 km, 64.6° (Epoch: 29 August)

Date Brightness Start Highest point End Pass type
(mag) Time Alt. Az. Time Alt. Az. Time Alt. Az.
30 Aug 9.6 03:11:51 19° NNE 03:11:51 19° NNE 03:13:11 10° NNE visible
31 Aug 9.6 03:31:30 16° N 03:31:30 16° N 03:32:46 10° N visible
01 Sep 9.8 03:51:07 11° NNW 03:51:07 11° NNW 03:51:32 10° NNW visible
